Latrobe, PA

3:10 PM EST on December 06, 2019 (GMT -0500)
Arnold Palmer Regional

Weather History for KLBE - May, 2019

Change the Weather History Date:

Monday, May 27, 2019

  Actual Average Record
Temperature  
Mean Temperature 68 °F -  
Max Temperature 77 °F 70 °F 89 °F (2012)
Min Temperature 60 °F 50 °F 37 °F (2013)
Cooling Degree Days 4    
Growing Degree Days 18 (Base 50)    
Moisture  
Dew Point 61 °F    
Average Humidity 86    
Maximum Humidity 100    
Minimum Humidity 44    
Precipitation  
Precipitation 0.00 in - - ()
Sea Level Pressure  
Sea Level Pressure 30.00 in    
Wind  
Wind Speed 1 mph (WNW)    
Max Wind Speed 10 mph    
Max Gust Speed -    
Visibility 12 miles    
Events      
Averages and records for this station are not official NWS values.
T = Trace of Precipitation, MM = Missing Value Source: NWS Daily Summary

Daily Weather History Graph

Daily Weather History Graph

Search for Another Location

Airport or City:

Astronomy

May. 27, 2019 Rise Set
Actual Time 5:52 AM EDT 8:37 PM EDT
Civil Twilight 5:20 AM EDT 9:09 PM EDT
Nautical Twilight 4:40 AM EDT 9:49 PM EDT
Astronomical Twilight 3:55 AM EDT 10:35 PM EDT
Moon 2:37 AM EDT (5/27) 1:47 PM EDT (5/27)
Length of Visible Light 15h 48m
Length of Day
14h 44m
Last Quarter, 41% of the Moon is Illuminated
May 27
Last Quarter
Jun 3
New
Jun 10
First Quarter
Jun 17
Full
Jun 25
Last Quarter

Hourly Weather History & Observations

Time (EDT) Temp. Dew Point Humidity Pressure Visibility Wind Dir Wind Speed Gust Speed Precip Events Conditions
12:15 AM 64.4 °F 64.4 °F 100% 30.01 in 10.0 mi Calm Calm - N/A   Mostly Cloudy
12:35 AM 64.4 °F 64.4 °F 100% 30.01 in 10.0 mi Calm Calm - N/A   Mostly Cloudy
12:55 AM 64.4 °F 64.4 °F 100% 30.02 in 10.0 mi Calm Calm - N/A   Scattered Clouds
1:15 AM 64.4 °F 64.4 °F 100% 30.02 in 10.0 mi Calm Calm - N/A   Mostly Cloudy
1:35 AM 64.4 °F 64.4 °F 100% 30.02 in 10.0 mi Calm Calm - N/A   Mostly Cloudy
1:55 AM 64.4 °F 64.4 °F 100% 30.02 in 10.0 mi Calm Calm - N/A   Overcast
2:15 AM 64.4 °F 64.4 °F 100% 30.01 in 10.0 mi Calm Calm - N/A   Overcast
2:35 AM 64.4 °F 64.4 °F 100% 30.01 in 10.0 mi Calm Calm - N/A   Overcast
2:55 AM 64.4 °F 64.4 °F 100% 30.01 in 10.0 mi Calm Calm - N/A   Overcast
3:15 AM 64.4 °F 64.4 °F 100% 30.01 in 10.0 mi Calm Calm - N/A   Mostly Cloudy
3:35 AM 64.4 °F 64.4 °F 100% 30.01 in 10.0 mi Calm Calm - N/A   Overcast
3:55 AM 64.4 °F 64.4 °F 100% 30.00 in 10.0 mi Calm Calm - N/A   Overcast
4:15 AM 64.4 °F 64.4 °F 100% 30.00 in 10.0 mi Calm Calm - N/A   Overcast
4:35 AM 64.4 °F 64.4 °F 100% 30.00 in 10.0 mi Calm Calm - N/A   Overcast
4:55 AM 64.4 °F 64.4 °F 100% 30.00 in 10.0 mi Calm Calm - N/A   Overcast
5:15 AM 64.4 °F 64.4 °F 100% 30.01 in 10.0 mi Calm Calm - N/A   Overcast
5:35 AM 64.4 °F 64.4 °F 100% 30.01 in 10.0 mi Calm Calm - N/A   Overcast
5:55 AM 62.6 °F 62.6 °F 100% 30.02 in 10.0 mi Calm Calm - N/A   Overcast
6:53 AM 64.4 °F 64.4 °F 100% 30.04 in 10.0 mi Calm Calm - N/A   Overcast
7:53 AM 64.4 °F 64.4 °F 100% 30.06 in 10.0 mi NW 4.6 mph - N/A   Overcast
8:53 AM 64.4 °F 64.4 °F 100% 30.16 in 10.0 mi North 4.6 mph - N/A   Mostly Cloudy
9:53 AM 68.0 °F 62.6 °F 83% 30.06 in 10.0 mi NNW 4.6 mph - N/A   Mostly Cloudy
10:53 AM 69.8 °F 60.8 °F 73% 30.06 in 10.0 mi WNW 6.9 mph - N/A   Mostly Cloudy
11:45 AM 69.8 °F 60.8 °F 73% 30.05 in 10.0 mi WNW 6.9 mph - N/A   Scattered Clouds
12:45 PM 73.4 °F 59.0 °F 61% 30.04 in 10.0 mi WNW 5.8 mph - N/A   Scattered Clouds
1:45 PM 73.4 °F 55.4 °F 53% 30.02 in 10.0 mi West 4.6 mph - N/A   Scattered Clouds
2:45 PM 73.4 °F 55.4 °F 53% 30.00 in 10.0 mi West 5.8 mph - N/A   Scattered Clouds
3:45 PM 75.2 °F 55.4 °F 50% 29.99 in 10.0 mi West 10.4 mph - N/A   Scattered Clouds
4:51 PM 75.2 °F 51.8 °F 44% 29.97 in 20.0 mi NW 4.6 mph - N/A   Partly Cloudy
5:51 PM 77.0 °F 53.6 °F 44% 29.97 in 20.0 mi West 6.9 mph - N/A   Partly Cloudy
6:51 PM 75.2 °F 53.6 °F 47% 29.96 in 20.0 mi West 4.6 mph - N/A   Clear
7:51 PM 73.4 °F 53.6 °F 50% 29.97 in 20.0 mi Calm Calm - N/A   Clear
8:51 PM 68.0 °F 57.2 °F 68% 29.95 in 20.0 mi Calm Calm - N/A   Clear
9:51 PM 68.0 °F 57.2 °F 68% 29.95 in 20.0 mi Calm Calm - N/A   Clear
10:15 PM 62.6 °F 59.0 °F 88% 29.93 in 10.0 mi Calm Calm - N/A   Clear
10:35 PM 62.6 °F 60.8 °F 94% 29.93 in 10.0 mi Calm Calm - N/A   Clear
10:55 PM 62.6 °F 60.8 °F 94% 29.92 in 10.0 mi Calm Calm - N/A   Clear
11:15 PM 60.8 °F 60.8 °F 100% 29.93 in 10.0 mi Calm Calm - N/A   Clear
11:35 PM 60.8 °F 60.8 °F 100% 29.93 in 10.0 mi Calm Calm - N/A   Clear
11:55 PM 60.8 °F 60.8 °F 100% 29.92 in 10.0 mi Calm Calm - N/A   Clear